星链-31638 (STARLINK-31638 )

导读

STARLINK-31638是美国星链(Starlink)项目的低轨互联网卫星,于2024年4月13日发射入轨,隶属于SpaceX公司打造的星链星座组网卫星序列。星链旨在为全球提供高速低延迟互联网服务,该卫星加入后进一步扩充了星座规模,推进了全球覆盖的组网进程,延续了星链星座高密度发射组网的节奏。

Basic Information
目录编号:
59489
目录名称:
STARLINK-31638
国际标识:
2024-071F
轨道中心:
EARTH
卫星名称:
星链-31638
卫星全名:
星链-31638 (STARLINK-31638 )
卫星状态:
在轨 (已飞行874 天)
发射日期:
2024-04-13 UTC
国别 :
美国 (US)
星等 :
--
Orbit Information
数据来源 国际轨道数据
星历时间: 2026-09-03T20:28:16+0800
1天前
查看轨道信息
半长轴: 6861.189km
偏心率: 0.0000692
轨道倾角: 43.000°
近地点辐角 206.881°
升交点赤经 55.341°
平近点角 153.201°
近地点: 482.577km
远地点: 483.527km
周期: 94.267分钟
每日圈数: 15.275793
Detailed Information
固有亮度:
5
最大亮度:
1.5
卫星平台:
Starlink v2.0 mini
覆盖范围:
全球
运营商:
太空探索技术公司
运营商所在国:
美国
制造商(研发单位):
太空探索技术公司
制造商所在国:
美国
使用方式:
暂无
Satellite Introduction
星链(Starlink)计划是由太空探索技术公司(SpaceX)提出的一个巨型低轨卫星互联网星座项目,计划在2019年至2024年间在太空搭建由约1.2万颗卫星组成的“星链”网络,其中1584颗将部署在地球上空550千米处的近地轨道,并从2020年开始工作。该卫星仍在工作。
2D Orbit Map
3D Orbit Map
Orbit Altitude Analysis Chart
Orbit Inclination Analysis Chart
Orbit Comprehensive Analysis Chart
View Comprehensive Chart
Conjunction Data List
Event ID Objects TCA Miss Dist (km) Collision Risk Probability Collision Risk Index (CRI) Action
CDM_260906-144305-948906-703421
2026-09-06T
14:43:00+0000
0.449 km
远距离
1.41739E-4 高风险 0.78
CDM_260828-012005-948906-790721
2026-08-28T
01:20:17+0000
0.552 km
远距离
1.074461E-4 高风险 0.76
CDM_260828-025405-948906-790722
2026-08-28T
02:54:26+0000
1.271 km
极远距离
7.418205E-6 低风险 0.52
CDM_260906-170605-948906-659121
2026-09-06T
17:06:15+0000
1.513 km
极远距离
3.733044E-6 低风险 0.46
CDM_260903-010903-921105-948926
2026-09-03T
01:09:46+0000
1.961 km
极远距离
2.748938E-6 低风险 0.44
CDM_260907-000905-948906-659121
2026-09-07T
00:09:57+0000
1.857 km
极远距离
2.059759E-6 低风险 0.41
CDM_260903-093905-321405-948921
2026-09-03T
09:39:55+0000
2.318 km
极远距离
1.847051E-6 低风险 0.4
CDM_260905-072605-948906-393421
2026-09-05T
07:26:30+0000
2.346 km
极远距离
1.73533E-6 低风险 0.4
CDM_260906-223505-948906-659121
2026-09-06T
22:35:47+0000
2.119 km
极远距离
1.492442E-6 低风险 0.38
CDM_260827-234605-948906-790721
2026-08-27T
23:46:08+0000
2.254 km
极远距离
1.443296E-6 低风险 0.38